Temperature
3 3 3 3 3 3 3 2 2 2 2 2 3 3 3 3 3 3 3 3 3 3 3 3 3 3 3 3 4 4 4 4 4 4 4 4 5 5
3 3 3 3 2 2 2 2 2 1 1 2 2 2 2 2 2 2 2 2 3 3 3 3 3 3 3 3 3 3 3 3 3 4 4 4 4 4
2 2 2 2 2 2 2 1 1 1 1 1 1 1 2 2 2 2 2 2 2 2 2 2 3 3 3 3 3 3 3 3 3 3 3 4 4 4
2 2 2 2 2 1 1 1 1 1 0 1 1 1 1 1 1 1 2 2 2 2 2 2 2 2 3 3 3 3 3 3 3 3 3 3 4 4
1 1 1 1 1 1 1 1 1 1 0 0 0 0 1 1 1 1 1 1 1 2 2 2 2 2 2 2 2 2 2 2 2 3 3 3 3 3
1 1 1 1 1 1 1 1 0 0 0 -0 -0 -0 0 0 0 0 1 1 1 1 1 1 2 2 2 2 2 2 2 2 2 2 2 3 3 3
1 1 1 0 0 0 0 0 -0 -0 -0 -0 -0 -0 -0 -0 -0 -0 -0 -0 0 0 1 1 1 2 2 2 2 2 2 2 2 2 2 2 2 2
0 0 0 -0 -0 -0 -0 -0 -1 -1 -1 -1 -1 -1 -1 -1 -1 -1 -1 -1 -1 -0 0 1 1 1 1 2 1 1 1 1 1 1 1 1 2 2
-0 -0 -0 -0 -0 -1 -1 -1 -1 -1 -1 -1 -1 -1 -1 -1 -1 -1 -1 -1 -1 -1 -1 0 0 1 1 1 1 1 1 1 1 1 1 1 1 1
-1 -1 -1 -1 -1 -1 -1 -1 -1 -1 -1 -1 -1 -1 -1 -1 -1 -2 -2 -1 -1 -1 -1 -1 -0 0 1 1 1 1 1 1 1 1 1 1 1 1
-1 -1 -1 -1 -1 -1 -1 -1 -1 -1 -1 -1 -2 -2 -2 -2 -2 -2 -2 -2 -2 -1 -2 -2 -1 -1 0 1 1 1 0 0 0 0 0 0 0 0
-1 -1 -1 -1 -1 -2 -2 -2 -2 -2 -2 -2 -2 -2 -2 -2 -2 -2 -2 -2 -2 -2 -2 -2 -2 -2 -1 -0 -0 -0 -0 -0 -0 -0 -0 -0 -0 -0
-1 -1 -1 -1 -1 -2 -2 -2 -2 -2 -2 -2 -2 -2 -2 -2 -2 -2 -2 -2 -2 -2 -2 -2 -2 -2 -2 -2 -1 -0 -1 -1 -0 -0 -0 -0 -0 -1
-2 -2 -2 -2 -2 -2 -2 -2 -2 -2 -2 -3 -3 -3 -3 -2 -2 -2 -2 -2 -2 -2 -2 -2 -2 -2 -2 -2 -2 -1 -1 -1 -1 -1 -1 -1 -1 -1
-2 -2 -2 -2 -2 -2 -2 -2 -3 -3 -3 -3 -3 -3 -3 -3 -3 -3 -2 -2 -2 -2 -2 -2 -2 -2 -3 -3 -2 -2 -2 -2 -2 -2 -1 -1 -1 -1
-2 -2 -2 -2 -2 -2 -3 -3 -3 -3 -3 -3 -3 -3 -3 -3 -3 -3 -3 -3 -3 -2 -2 -2 -3 -3 -3 -2 -2 -2 -3 -3 -2 -2 -2 -2 -1 -1
-3 -2 -3 -3 -3 -3 -3 -3 -3 -3 -3 -3 -4 -4 -4 -3 -3 -3 -3 -3 -3 -3 -3 -3 -3 -3 -3 -3 -3 -3 -3 -3 -3 -3 -2 -2 -2 -2
-3 -3 -3 -3 -3 -3 -3 -3 -3 -3 -3 -4 -4 -4 -4 -4 -4 -4 -4 -4 -4 -4 -3 -3 -3 -3 -3 -3 -3 -3 -3 -3 -3 -3 -3 -3 -2 -2
-3 -3 -3 -4 -3 -3 -3 -3 -3 -3 -4 -4 -4 -4 -4 -4 -4 -4 -4 -4 -4 -4 -4 -4 -4 -4 -4 -4 -3 -3 -4 -3 -3 -3 -3 -3 -3 -2
-3 -4 -4 -4 -4 -4 -4 -4 -4 -4 -4 -4 -4 -4 -4 -4 -4 -4 -4 -5 -5 -4 -4 -4 -4 -4 -4 -4 -4 -3 -4 -4 -4 -4 -3 -3 -3 -3
-4 -4 -4 -4 -4 -4 -4 -4 -4 -4 -4 -4 -4 -4 -4 -4 -4 -5 -5 -5 -5 -5 -5 -4 -4 -4 -4 -4 -5 -4 -4 -4 -4 -4 -4 -4 -4 -4
-4 -4 -4 -4 -4 -4 -4 -4 -4 -4 -4 -4 -4 -5 -5 -5 -5 -5 -5 -5 -5 -5 -5 -5 -5 -5 -5 -5 -5 -5 -4 -4 -4 -4 -4 -4 -4 -4
-4 -4 -5 -5 -4 -5 -5 -5 -5 -5 -5 -5 -5 -5 -5 -5 -5 -5 -5 -5 -5 -5 -5 -5 -5 -5 -5 -5 -5 -5 -5 -4 -4 -4 -3 -4 -4 -4
Wind_Speed
3 3 3 3 2 2 2 2 3 4 5 3 2 2 4 4 6 5 6 8 9 9 10 11 11 11 12 12 12 11 11 12 12 13 13 13 12 12
3 3 4 3 3 2 3 3 3 4 5 3 3 3 3 4 6 5 7 9 9 10 11 11 12 12 12 12 12 11 11 12 12 13 13 12 12 11
4 4 5 4 3 3 3 3 3 4 6 5 3 3 3 3 4 5 6 6 7 10 11 12 12 12 12 12 12 11 11 11 11 12 13 12 11 11
5 4 5 4 5 3 3 4 4 4 5 6 4 3 3 3 3 4 4 6 6 10 12 12 12 11 12 12 11 10 10 10 11 12 12 11 11 10
5 5 5 5 6 4 4 4 4 4 4 4 4 3 3 3 3 4 4 4 6 8 10 10 11 12 12 12 11 10 10 10 10 11 11 10 9 10
5 5 6 6 6 6 5 5 4 4 4 3 4 3 3 3 2 3 4 4 5 6 7 8 10 11 12 11 10 9 10 10 10 10 10 9 9 10
5 6 6 7 8 7 5 5 4 4 4 4 4 3 3 2 3 3 4 5 5 3 3 5 6 6 7 9 9 9 9 9 9 9 9 8 8 8
5 5 6 6 7 8 9 7 6 6 5 5 5 5 5 4 3 3 3 4 4 2 4 6 4 5 5 5 8 8 8 8 8 8 8 8 7 7
5 5 5 5 6 5 7 8 7 8 8 6 6 6 5 5 4 4 4 4 5 4 4 5 4 5 5 7 8 7 7 7 7 7 7 8 8 8
5 5 5 5 5 5 5 6 6 6 7 6 5 6 5 5 5 5 6 5 5 3 2 4 4 4 5 5 6 6 6 6 7 7 7 7 8 8
5 5 5 5 7 7 5 6 6 5 6 7 7 6 7 7 5 3 3 4 5 4 1 2 3 4 4 3 4 4 5 6 7 7 8 7 7 7
4 5 6 7 7 7 6 6 6 6 4 4 5 5 5 5 5 4 4 4 4 3 1 1 2 2 3 2 2 3 4 5 6 7 8 8 8 5
4 4 5 7 8 8 6 5 7 5 4 4 4 4 3 3 3 4 4 4 4 4 2 1 2 1 2 3 3 2 2 3 4 5 7 8 8 5
4 4 5 7 7 8 6 6 7 5 3 3 3 4 3 3 3 4 4 5 5 6 5 3 3 3 2 3 4 3 2 3 3 3 3 6 6 6
4 6 6 6 6 5 6 6 5 3 3 3 4 4 3 3 2 3 3 3 4 5 5 4 4 3 3 4 4 4 3 3 2 2 3 3 3 3
4 5 6 5 4 4 4 3 3 3 3 4 3 3 2 2 2 2 2 2 3 3 3 4 5 4 4 5 5 5 4 2 2 3 3 3 3 3
2 2 2 2 2 2 2 2 2 2 3 2 2 2 2 2 2 2 2 2 2 3 3 3 3 3 4 4 4 4 4 3 3 3 3 4 4 3
2 2 3 3 3 3 3 2 2 2 2 2 2 3 2 2 2 2 2 2 3 3 3 3 2 2 2 2 4 4 3 3 3 3 3 3 5 4
2 2 3 3 2 2 2 2 2 2 2 2 2 2 2 2 2 2 2 2 3 3 3 2 2 2 3 4 3 3 3 3 3 3 3 3 5 5
2 2 2 2 2 2 2 2 2 1 1 1 1 2 2 2 2 2 2 3 3 3 3 2 2 2 4 4 4 4 4 4 4 4 4 3 4 5
2 2 2 2 1 2 2 2 2 1 1 1 1 2 2 2 2 2 3 4 3 3 4 4 4 5 3 2 3 3 3 5 5 4 4 3 3 3
1 1 1 1 1 1 1 1 2 1 1 1 1 2 2 2 2 3 3 3 3 3 4 3 3 2 2 2 4 4 5 5 5 4 4 3 2 2
1 1 1 1 1 1 1 2 2 2 2 2 2 2 2 2 2 2 3 3 3 3 3 3 2 2 2 2 3 3 4 5 4 3 3 3 3 3
Wind_Direction
229 229 232 239 232 230 237 237 238 271 273 255 266 264 272 270 270 272 273 278 285 287 288 289 290 292 294 295 294 292 293 295 295 296 294 291 293 294
230 233 238 238 232 225 229 244 241 249 265 257 264 273 273 280 280 282 276 284 284 284 286 288 289 290 289 293 291 289 289 291 291 293 294 292 293 292
236 235 239 238 234 226 227 237 244 246 261 279 280 281 268 276 285 277 281 279 278 281 285 288 289 288 288 291 289 288 287 289 291 291 294 293 294 291
231 230 238 243 240 233 229 235 241 247 254 270 279 283 271 265 274 283 283 282 277 279 284 287 287 287 288 292 288 286 287 288 288 290 292 292 291 288
229 226 230 232 237 236 235 235 240 253 255 260 274 284 290 291 295 293 289 281 281 281 285 287 287 288 287 290 284 283 284 285 286 290 292 290 292 290
233 228 225 226 228 230 234 230 234 244 252 259 269 279 286 292 289 299 301 291 294 293 287 291 293 292 286 286 284 282 282 283 285 289 288 290 291 291
237 233 229 226 229 231 235 229 225 233 245 252 261 276 275 291 284 288 291 302 297 289 298 296 294 289 289 283 280 283 284 286 287 290 291 293 291 288
240 242 236 227 233 241 244 242 235 233 236 238 250 256 264 273 280 282 291 302 297 296 307 298 296 291 288 278 281 282 281 287 293 297 296 295 295 291
237 241 246 238 232 234 241 247 249 249 246 238 241 248 256 258 263 272 277 282 283 288 298 292 293 287 287 285 288 284 289 295 299 304 306 303 302 302
237 238 240 242 232 226 230 238 242 245 249 243 237 244 252 250 242 252 265 280 286 279 274 279 288 291 298 287 288 289 296 302 304 305 308 308 306 305
242 241 240 242 239 228 227 235 246 253 261 262 268 270 273 272 270 265 273 282 289 286 261 265 283 305 295 279 288 303 307 307 308 308 309 310 307 303
248 247 246 246 247 234 226 227 240 246 248 259 265 272 268 268 267 246 240 254 274 275 249 270 279 327 313 291 291 297 296 303 310 311 306 306 308 306
244 247 248 252 251 247 240 232 240 246 239 242 249 257 259 256 252 254 246 244 254 261 246 236 256 274 258 292 300 290 285 299 300 302 305 307 309 308
246 249 251 254 252 248 246 245 248 251 238 238 246 253 261 264 262 265 266 258 252 255 247 243 249 251 258 280 286 302 309 308 302 302 300 306 305 301
249 253 254 252 255 250 248 247 241 234 231 239 247 253 257 259 266 278 281 282 283 271 256 251 251 252 253 262 274 286 304 310 301 306 310 311 307 298
258 257 255 259 259 251 248 247 236 230 231 235 245 256 262 264 273 278 285 294 298 298 286 266 251 246 261 267 265 276 283 280 297 304 304 305 304 290
247 252 250 252 245 243 240 235 234 232 236 229 235 249 263 272 280 282 274 288 284 294 316 322 303 279 259 254 262 268 276 285 284 297 303 303 303 298
228 228 238 235 234 235 236 236 233 230 224 229 232 237 250 263 277 287 282 282 284 287 294 301 317 331 324 302 260 260 269 283 295 298 295 292 298 305
234 237 238 234 228 227 227 228 233 231 216 221 234 239 249 259 272 280 282 284 285 284 288 289 285 287 292 297 298 273 271 290 297 294 286 279 286 294
235 241 239 233 221 221 224 223 223 216 211 224 240 247 246 251 263 269 271 276 287 291 293 291 278 276 266 276 284 296 288 274 281 282 287 284 283 288
245 245 240 230 221 219 222 214 210 214 217 228 242 254 253 247 257 266 271 281 280 279 284 288 289 295 293 300 299 301 302 294 283 274 277 273 288 290
259 259 249 230 222 221 216 213 207 205 208 226 239 253 260 256 253 258 263 272 274 276 283 290 301 305 292 286 289 298 312 322 318 306 287 262 242 239
256 257 250 234 226 228 219 217 204 210 212 219 232 246 255 263 262 262 268 275 281 286 293 298 308 304 288 278 289 298 306 316 327 338 329 319 286 264
Height
1468 1469 1469 1470 1470 1470 1470 1470 1470 1467 1465 1465 1465 1465 1464 1464 1464 1462 1462 1461 1460 1459 1458 1457 1456 1455 1454 1453 1452 1451 1450 1449 1448 1447 1446 1445 1443 1442
1464 1464 1465 1465 1465 1465 1466 1466 1466 1465 1463 1461 1461 1461 1460 1460 1459 1458 1457 1456 1455 1454 1453 1452 1451 1450 1449 1448 1447 1446 1445 1444 1443 1441 1440 1439 1438 1437
1459 1460 1460 1460 1461 1460 1461 1461 1461 1461 1459 1457 1458 1457 1456 1456 1455 1454 1453 1451 1450 1449 1448 1447 1446 1445 1444 1443 1441 1440 1439 1438 1437 1436 1435 1434 1432 1432
1455 1455 1455 1456 1456 1456 1456 1456 1457 1457 1456 1454 1453 1453 1452 1451 1450 1449 1448 1447 1446 1445 1444 1443 1441 1440 1439 1437 1436 1435 1434 1433 1432 1431 1430 1428 1427 1427
1450 1450 1451 1451 1451 1451 1451 1451 1452 1452 1452 1451 1449 1449 1448 1447 1446 1445 1444 1443 1442 1440 1439 1438 1436 1435 1433 1432 1431 1430 1429 1428 1427 1426 1424 1423 1422 1422
1445 1446 1446 1446 1446 1447 1447 1447 1447 1447 1447 1446 1445 1445 1444 1443 1442 1441 1439 1438 1437 1436 1434 1433 1432 1430 1429 1428 1426 1426 1425 1424 1422 1421 1420 1418 1417 1417
1440 1441 1441 1441 1441 1442 1442 1442 1442 1442 1442 1442 1441 1440 1440 1439 1438 1437 1436 1434 1432 1432 1430 1429 1427 1425 1424 1423 1422 1421 1420 1419 1418 1417 1415 1414 1413 1412
1435 1436 1436 1436 1436 1436 1437 1438 1438 1438 1438 1438 1437 1436 1436 1435 1435 1434 1433 1431 1428 1428 1426 1424 1423 1421 1420 1419 1418 1417 1416 1415 1414 1413 1411 1409 1408 1408
1431 1431 1431 1431 1431 1432 1432 1433 1433 1433 1434 1434 1433 1432 1432 1431 1431 1430 1429 1428 1426 1425 1423 1420 1420 1418 1417 1416 1415 1414 1413 1412 1410 1409 1407 1406 1405 1404
1426 1426 1426 1426 1426 1427 1427 1428 1428 1428 1429 1429 1429 1428 1429 1428 1428 1427 1426 1425 1423 1422 1421 1418 1416 1415 1413 1412 1411 1411 1410 1409 1407 1405 1404 1403 1402 1401
1421 1422 1422 1422 1422 1423 1423 1423 1423 1424 1424 1425 1425 1424 1425 1424 1424 1423 1422 1421 1418 1417 1417 1416 1413 1411 1409 1408 1408 1408 1407 1406 1404 1403 1401 1400 1399 1398
1417 1417 1417 1417 1418 1418 1418 1418 1418 1418 1419 1419 1420 1420 1420 1420 1420 1419 1418 1417 1415 1414 1413 1413 1411 1409 1406 1405 1405 1405 1404 1403 1402 1400 1398 1397 1396 1395
1412 1412 1412 1413 1413 1413 1414 1414 1414 1415 1415 1415 1414 1415 1415 1415 1415 1414 1414 1414 1412 1411 1411 1410 1408 1407 1405 1403 1401 1402 1401 1399 1398 1397 1396 1394 1393 1392
1408 1408 1408 1408 1408 1409 1409 1410 1411 1411 1411 1410 1410 1410 1410 1410 1410 1410 1410 1409 1409 1408 1408 1407 1405 1404 1402 1400 1398 1398 1397 1397 1396 1394 1393 1392 1391 1390
1404 1404 1405 1404 1404 1405 1405 1406 1406 1407 1406 1406 1406 1406 1406 1406 1406 1406 1406 1405 1405 1405 1404 1403 1402 1401 1400 1398 1396 1394 1393 1393 1393 1391 1390 1389 1388 1387
1401 1401 1401 1401 1401 1401 1401 1402 1402 1402 1403 1403 1402 1403 1403 1403 1402 1402 1401 1401 1400 1399 1400 1399 1399 1398 1396 1395 1393 1392 1391 1390 1389 1388 1387 1385 1385 1384
1398 1398 1397 1397 1397 1397 1397 1398 1398 1399 1399 1399 1399 1399 1399 1399 1399 1399 1398 1398 1397 1396 1395 1395 1395 1394 1393 1392 1390 1389 1388 1387 1386 1385 1383 1382 1381 1381
1395 1394 1394 1394 1393 1394 1394 1394 1395 1395 1396 1396 1396 1396 1396 1396 1395 1396 1395 1395 1394 1393 1392 1392 1391 1390 1390 1389 1389 1386 1385 1384 1383 1382 1381 1379 1377 1378
1391 1391 1391 1391 1391 1391 1391 1391 1392 1392 1393 1393 1393 1393 1393 1393 1393 1393 1392 1392 1391 1391 1390 1389 1388 1387 1386 1384 1385 1385 1383 1381 1380 1378 1378 1376 1375 1375
1388 1388 1388 1388 1388 1388 1388 1389 1389 1389 1389 1390 1390 1390 1390 1390 1390 1390 1390 1389 1389 1388 1387 1387 1386 1385 1384 1383 1382 1381 1381 1379 1377 1375 1374 1373 1373 1373
1385 1385 1385 1385 1385 1385 1385 1386 1386 1386 1387 1387 1387 1388 1388 1388 1388 1388 1387 1387 1386 1385 1384 1384 1384 1384 1383 1381 1380 1378 1377 1377 1375 1372 1371 1370 1369 1368
1382 1382 1382 1382 1382 1382 1383 1383 1383 1384 1384 1385 1385 1385 1385 1385 1385 1385 1385 1384 1383 1383 1382 1381 1381 1381 1380 1379 1377 1375 1374 1373 1372 1371 1370 1369 1368 1366
1380 1380 1380 1379 1379 1380 1380 1380 1381 1381 1382 1382 1382 1383 1383 1383 1382 1382 1382 1382 1381 1380 1379 1378 1378 1378 1377 1376 1375 1374 1372 1371 1369 1367 1367 1368 1367 1367